Location: Castillon
(43.1358°N, 0.8654°E)
Time: 19:49:47
(UTC+00:00)

H-2A R/B - Pass Details

Date: 24 January 2021
Orbit: 734 x 836 km, 98.2° (Epoch: 28 February)

Event Time Altitude Azimuth Distance (km) Brightness Sun altitude
Rises 19:24:18 0° 188° (S) 3,173 5.3 -26.5°
Reaches altitude 10° 19:26:44 10° 197° (SSW) 2,265 4.6 -26.9°
Maximum altitude 19:31:18 36° 264° (W) 1,202 3.5 -27.8°
Drops below altitude 10° 19:36:01 10° 330° (NNW) 2,336 4.8 -28.6°
Sets 19:38:33 0° 339° (NNW) 3,286 5.5 -29.1°
